Location: Gorlice
(49.6633°N, 21.1693°E)
Time: 01:17:22
(UTC+01:00)

ISS - Pass Details

Date: 26 January 2019
Orbit: 403 x 411 km, 51.6° (Epoch: 17 February)

Event Time Altitude Azimuth Distance (km) Brightness Sun altitude
Rises 19:13:51 0° 262° (W) 2,335 1.2 -27.9°
Reaches altitude 10° 19:15:56 10° 265° (W) 1,477 -0.1 -28.3°
Enters shadow 19:16:57 18° 268° (W) 1,072 -0.9 -28.4°
